RH
7 6 5 5 9 11 9 10 15 15 12 15 16 12 9 8 11 12 11 11 11 11 11 13 18 14 13 20 23 21 22 30 37 40 52 61 60 55 48 44 44 40 42 45 38 36 37 38 39 39 38 36 36 35 34 36 39 43 44 42 41 41 40 39 38 36 33 33 34 35 35 31 29 31 34 35 34 33 29 27 27 26 25 26 27 25 20 18 18 20 23 25 27 26 25 26 25
8 7 5 6 11 12 14 11 15 18 13 12 11 11 10 9 10 9 9 11 17 23 23 20 18 15 13 19 22 22 25 30 33 40 49 51 51 49 45 44 43 42 47 46 40 37 38 39 40 40 38 36 35 34 34 36 40 44 45 43 41 41 41 40 38 36 34 35 36 35 35 32 32 35 37 38 36 35 30 27 25 24 25 28 32 29 23 22 20 21 23 25 28 27 26 26 26
11 8 6 8 11 13 20 16 13 16 15 12 9 8 9 10 10 10 14 22 28 29 26 22 21 19 16 17 21 24 34 42 42 43 43 42 42 41 43 44 40 43 46 44 40 38 39 39 40 40 38 36 35 34 35 36 39 43 45 43 41 42 42 40 38 36 35 35 36 37 37 35 37 39 40 40 38 34 30 27 25 22 22 25 32 35 33 30 28 27 26 25 29 29 27 27 27
10 8 6 9 13 13 18 18 12 13 13 11 10 9 10 9 9 17 27 31 28 22 22 21 24 27 25 29 31 33 44 51 47 45 39 39 40 37 40 41 38 39 42 42 41 41 39 39 40 40 38 36 36 34 34 34 37 41 44 45 43 42 41 38 36 37 38 38 41 43 41 38 39 42 43 43 39 36 33 30 28 24 23 23 26 34 38 37 35 36 32 28 29 30 29 28 27
8 8 7 9 16 16 13 16 13 11 11 10 11 11 11 11 11 20 26 27 24 23 27 25 29 34 35 40 38 43 54 53 46 42 39 38 36 33 36 40 43 41 40 41 41 42 39 40 41 39 40 38 37 35 34 33 35 39 43 46 43 39 38 37 38 42 44 45 46 46 44 42 43 45 46 46 43 40 39 35 30 27 25 24 23 27 35 37 35 37 38 34 30 30 30 29 28
7 8 7 8 17 18 12 15 16 11 9 8 11 12 11 11 12 16 14 16 21 27 31 31 35 35 41 46 41 49 56 51 45 41 40 37 32 33 37 42 48 47 46 45 42 41 40 43 44 42 42 41 40 39 37 36 36 39 42 45 43 40 40 41 43 50 52 49 48 47 47 45 47 48 48 52 51 47 47 43 37 32 29 28 26 24 27 31 32 34 39 39 32 29 31 30 30
8 7 8 9 13 15 12 14 15 11 9 7 11 13 12 11 12 12 9 10 14 22 28 34 38 35 44 48 46 50 49 46 44 39 37 34 31 33 40 45 50 54 53 49 46 44 46 51 50 49 47 45 45 44 42 41 42 43 46 47 47 45 46 46 50 57 57 53 49 49 50 49 51 53 54 58 57 51 51 51 45 40 35 33 32 28 26 25 26 30 36 39 32 28 30 31 31
7 10 11 10 12 11 10 12 11 11 10 8 9 11 12 11 11 10 9 9 11 19 25 30 34 38 45 45 50 52 47 46 43 37 35 33 32 34 40 45 51 60 57 53 55 51 53 57 57 56 53 51 50 48 47 45 46 48 51 53 54 54 52 52 55 60 60 56 54 52 52 53 56 59 64 63 57 54 53 53 52 47 42 37 36 34 31 28 27 27 31 34 29 26 29 31 32
7 12 14 10 13 12 9 10 9 9 10 9 9 9 10 11 10 8 9 9 12 19 26 30 29 34 42 44 52 53 47 46 41 37 34 33 33 34 41 47 57 63 57 58 61 56 56 60 61 60 59 59 56 52 50 50 51 53 57 59 62 61 58 59 61 62 62 60 57 54 54 56 59 62 66 64 59 60 56 53 54 52 48 42 40 38 36 35 34 31 28 29 28 26 28 32 34
8 11 15 10 12 15 11 9 8 8 9 9 8 9 10 10 8 7 9 10 11 15 22 31 28 32 41 47 55 55 52 48 41 37 34 33 33 37 44 51 59 58 57 64 66 61 58 57 60 61 60 61 59 56 55 55 56 59 64 67 69 66 62 64 66 65 64 64 61 57 56 58 60 60 63 62 58 62 58 53 53 54 53 47 44 43 41 41 40 37 30 26 27 27 27 31 34
11 11 13 11 11 14 12 10 8 7 8 8 8 9 9 9 7 7 9 10 11 11 19 27 27 33 42 50 58 57 54 49 42 37 35 35 35 40 47 52 56 56 61 69 70 66 62 63 66 66 63 62 62 62 64 64 64 66 70 73 74 71 67 68 70 69 66 66 63 57 58 59 58 58 60 59 55 57 56 53 51 54 55 49 47 46 45 44 41 38 33 28 27 27 27 29 32
13 11 10 11 12 11 11 10 11 11 10 9 7 9 11 9 7 7 8 10 11 11 17 24 30 37 43 52 60 58 55 51 42 36 35 37 39 41 47 52 55 56 62 68 71 70 66 70 75 72 69 67 69 71 74 75 74 72 72 75 77 74 72 71 71 72 70 66 62 57 58 58 56 56 56 56 55 54 53 51 50 54 56 53 50 48 47 45 40 38 36 32 28 26 26 27 31
13 12 11 11 12 10 9 10 12 12 11 9 7 11 14 11 9 9 7 10 11 11 16 25 38 46 49 59 63 59 58 52 41 36 36 38 40 42 45 50 51 52 59 68 71 71 70 74 77 76 75 74 76 78 80 81 76 72 74 78 79 77 75 72 73 74 71 66 62 59 59 58 57 56 54 55 56 54 52 48 48 54 57 57 54 49 47 44 40 38 36 34 32 28 25 27 31
12 15 15 12 11 9 9 10 13 11 10 9 8 11 12 15 16 12 10 12 12 11 19 28 40 49 57 64 60 56 57 51 41 37 40 39 40 44 45 47 48 48 57 69 72 74 77 79 80 80 81 80 81 82 82 81 76 73 76 81 80 78 75 72 75 75 71 67 64 62 62 60 58 56 54 55 55 53 51 48 47 50 54 57 53 46 44 43 39 35 31 31 34 32 28 27 31
12 13 15 15 12 10 9 10 11 10 13 12 12 12 11 18 19 16 15 14 14 16 27 34 41 52 60 62 55 54 55 50 42 37 39 41 41 44 45 45 51 56 62 73 78 82 79 78 82 84 86 84 83 84 82 82 79 78 78 80 80 77 74 73 76 74 70 68 66 66 65 61 58 55 53 52 52 52 51 48 48 47 49 53 49 43 44 45 41 35 32 30 31 32 31 29 31
13 13 13 15 12 12 12 10 9 10 15 13 14 12 11 21 19 22 23 17 23 29 40 46 47 53 55 59 58 56 54 48 40 35 36 39 39 41 45 46 54 63 68 77 81 82 77 78 85 86 87 85 84 83 81 83 82 80 77 77 79 76 73 73 75 73 70 69 69 69 65 61 59 55 52 51 51 50 50 49 48 47 47 47 45 43 44 47 45 39 35 33 30 30 31 30 30
14 13 13 14 12 13 14 13 10 11 17 13 15 12 11 22 20 25 29 28 38 40 50 55 51 52 50 55 59 54 47 41 37 34 36 38 40 41 45 46 52 61 67 74 78 79 76 77 81 79 82 84 83 79 81 86 85 82 77 77 77 73 73 73 74 74 73 71 70 70 66 62 64 60 54 55 55 53 52 50 50 49 46 43 42 40 40 43 47 43 38 35 33 30 30 29 29
14 13 13 13 12 13 15 15 14 14 18 15 14 12 9 19 23 25 29 36 44 44 54 58 52 51 50 49 48 45 40 37 36 35 37 39 41 42 42 45 51 58 61 65 70 73 72 71 73 72 77 82 81 80 84 87 84 81 78 77 75 72 74 75 76 75 73 71 69 68 65 63 64 61 59 61 60 58 56 51 50 51 47 44 42 42 41 42 44 44 40 36 34 32 31 31 30
14 13 11 13 12 15 16 15 15 14 16 16 13 12 10 14 22 28 33 43 48 48 53 53 51 50 48 45 39 38 36 36 36 34 36 37 39 39 40 46 51 54 54 56 61 62 66 71 74 73 76 80 81 81 84 83 81 80 77 76 75 74 75 74 75 71 69 70 71 67 64 65 63 62 65 65 62 60 58 53 52 50 47 45 44 45 47 45 42 41 41 38 35 36 37 38 36
13 13 11 12 12 15 17 13 14 14 15 16 13 12 12 14 21 28 36 47 51 52 50 46 48 49 50 48 39 36 35 36 36 34 36 36 38 38 40 48 53 53 51 52 55 54 61 70 72 73 76 80 81 82 83 81 82 80 77 75 76 76 74 72 72 68 69 72 72 70 69 71 66 66 67 65 63 62 59 54 50 48 47 46 47 50 50 48 47 43 42 41 40 43 45 44 42
13 12 11 13 13 14 15 14 13 13 13 14 12 11 12 14 17 23 34 45 48 48 48 45 45 51 57 53 44 40 36 35 36 36 37 36 37 38 39 47 51 51 50 48 49 50 58 68 70 71 76 79 78 82 84 81 80 79 78 78 78 76 74 74 72 69 68 68 73 77 76 74 68 68 67 64 65 66 64 59 55 55 56 55 53 56 57 56 57 55 49 45 47 52 53 50 46
14 12 11 13 15 15 14 15 13 12 12 11 11 12 13 13 14 21 28 38 42 41 45 46 45 52 55 51 46 43 39 36 36 37 39 37 37 38 37 41 45 46 47 47 46 47 53 61 66 67 74 81 79 80 82 78 80 82 82 82 79 76 75 74 71 70 66 63 69 76 80 78 70 67 67 67 73 72 64 62 65 68 65 62 58 59 64 65 66 67 62 55 54 57 58 57 53
15 12 12 13 14 15 15 15 13 11 11 11 12 13 13 12 15 20 24 33 41 41 44 44 44 52 53 46 43 43 40 34 34 38 39 38 38 38 37 38 43 44 44 44 45 46 47 50 57 63 72 81 82 82 83 79 82 84 82 82 77 74 74 70 70 71 67 65 66 72 77 76 66 62 62 65 75 73 61 60 71 77 72 64 60 61 65 67 67 69 69 64 59 57 58 61 59
14 14 13 14 13 13 14 14 12 11 11 11 12 12 12 13 15 17 19 29 39 40 42 39 40 53 56 44 41 44 40 34 34 36 36 37 38 38 38 39 41 43 44 44 45 46 45 48 56 65 72 80 80 80 82 80 81 81 76 75 72 71 71 68 70 70 67 67 66 66 69 69 62 58 60 60 64 65 60 63 72 78 78 73 70 66 64 64 66 68 69 67 64 62 60 60 61
13 14 14 14 14 13 13 12 11 11 11 12 12 11 12 14 14 15 17 24 32 32 32 32 32 50 58 46 43 44 39 35 35 35 35 37 37 36 39 41 41 44 45 45 46 46 46 50 57 60 65 76 78 76 77 77 78 77 73 71 70 69 68 66 67 67 65 63 60 60 62 66 63 54 54 52 54 59 58 62 64 66 71 74 73 68 63 62 63 66 68 67 66 67 63 60 61
14 14 13 13 13 13 13 12 11 11 11 11 12 12 13 15 13 14 16 20 25 23 21 25 27 45 57 45 40 42 38 36 36 36 39 38 35 37 41 43 43 44 46 49 52 51 49 52 59 57 58 67 71 72 74 73 73 73 72 72 72 69 65 64 64 62 60 57 56 61 61 61 61 54 55 53 47 49 51 58 57 55 62 67 66 61 59 61 60 63 66 65 65 65 64 62 62
16 15 13 12 13 14 13 12 11 11 12 11 12 13 14 15 13 14 16 17 21 19 19 23 28 44 52 40 37 41 38 36 37 37 39 36 36 41 44 45 44 43 46 52 58 58 54 56 60 59 58 61 62 66 69 69 71 73 72 70 71 67 64 63 62 59 57 55 55 61 59 56 55 52 58 59 49 44 48 56 54 53 63 68 67 63 60 61 60 61 63 65 67 67 67 64 62
15 14 14 13 12 13 13 12 12 11 12 11 12 13 15 15 13 16 22 21 19 21 23 26 34 48 50 41 38 38 37 37 38 37 36 36 39 44 44 46 47 46 50 55 58 58 56 58 62 61 61 60 58 59 62 68 72 73 71 69 68 66 64 62 59 56 54 56 57 58 58 55 55 52 53 53 50 51 50 53 53 53 65 73 71 65 61 63 64 64 64 66 71 73 73 68 66
14 13 13 13 12 13 13 12 12 11 12 13 13 13 15 15 12 17 24 25 21 23 26 28 42 54 51 45 38 35 39 39 37 36 35 37 41 44 42 45 49 50 56 58 59 59 57 61 65 62 60 58 59 59 63 71 74 73 71 68 66 61 59 56 55 53 52 57 57 58 60 56 60 58 53 51 48 52 54 55 58 56 65 78 72 62 61 64 66 68 67 68 71 75 77 74 71
13 13 12 13 13 13 12 12 11 11 13 13 13 14 14 14 13 14 20 24 23 23 25 30 47 56 49 43 37 38 42 39 38 37 36 40 44 45 42 42 45 49 55 58 59 58 54 57 60 58 58 59 61 64 68 72 72 72 69 65 63 58 55 53 55 56 55 56 54 59 62 56 62 59 55 58 51 49 56 62 63 59 66 72 64 61 63 64 65 68 69 69 70 72 75 76 75
12 12 12 12 14 13 12 12 11 12 13 13 13 14 14 14 14 14 16 21 21 22 25 30 47 56 49 44 38 41 43 38 40 38 37 43 44 44 43 42 43 47 53 57 57 54 50 51 52 51 55 58 59 60 63 64 65 66 66 66 61 56 54 53 55 56 56 54 51 54 53 49 55 53 51 56 54 51 55 59 60 61 68 64 58 62 66 65 66 66 67 67 67 68 69 71 71
12 13 14 12 12 13 15 14 12 12 13 12 13 13 13 14 17 19 17 21 21 22 25 28 46 56 50 47 40 42 45 39 40 38 37 42 43 43 43 43 46 49 54 57 54 49 46 45 46 48 50 53 54 55 58 63 73 75 68 66 58 54 55 54 54 52 49 48 45 43 43 46 49 48 50 52 56 57 51 52 56 59 67 63 57 62 64 67 67 65 66 67 67 67 66 68 68
14 13 14 13 12 13 17 18 13 13 14 13 13 13 13 15 18 22 21 22 22 23 23 28 45 53 49 50 45 45 45 40 40 39 37 39 40 43 43 44 48 50 54 58 53 48 48 46 47 50 51 54 54 57 65 70 81 84 74 66 60 59 61 57 54 51 47 45 42 40 40 44 44 44 51 50 51 53 48 49 52 53 59 57 56 60 62 66 65 63 66 68 69 67 64 65 66
15 14 13 14 14 12 17 20 15 13 14 13 14 12 13 16 20 24 22 21 23 22 23 30 45 51 49 48 45 46 46 42 42 41 38 38 39 43 44 46 50 51 54 56 53 52 54 53 48 48 54 63 63 62 69 69 70 72 69 63 59 63 63 56 52 50 51 49 44 43 39 39 42 41 45 47 46 47 45 45 45 49 56 54 54 57 58 63 65 63 64 68 69 67 63 62 64
16 15 14 14 15 14 15 20 20 15 13 13 14 14 13 16 23 24 20 19 23 23 23 31 44 48 44 43 44 50 49 44 44 43 38 38 40 44 46 49 52 54 57 57 56 55 55 50 46 49 54 63 64 59 62 62 60 62 63 61 60 62 59 51 49 50 52 50 45 44 39 35 43 45 42 43 44 45 45 43 43 47 55 54 52 54 56 61 65 63 64 66 67 67 67 65 64
19 17 15 13 17 18 14 19 23 17 13 14 14 14 13 14 20 22 19 19 21 22 23 28 39 43 42 47 51 51 49 44 45 45 39 36 42 48 49 51 55 58 59 59 59 58 53 45 45 51 53 54 54 53 56 61 63 63 61 58 56 52 47 41 42 45 46 46 45 42 37 33 40 45 43 39 39 45 47 44 46 48 52 52 51 55 56 57 61 62 62 64 65 68 70 68 65
23 21 19 15 18 23 16 18 25 19 14 16 13 13 14 14 16 17 18 21 21 21 23 25 34 43 47 51 50 46 46 45 46 47 41 36 42 49 53 54 56 60 62 61 57 53 49 44 45 51 49 48 49 52 62 68 68 64 57 52 49 44 41 38 39 44 44 43 42 38 34 34 34 38 43 42 39 43 42 39 45 50 55 57 54 54 55 55 57 58 59 61 64 66 68 69 68
22 21 21 19 18 22 18 18 26 22 17 17 16 14 15 16 16 17 19 24 25 21 22 26 32 41 49 50 47 46 45 41 43 48 45 43 46 51 56 56 55 56 58 56 51 49 47 46 51 54 54 54 57 65 72 70 65 62 55 50 47 44 43 42 41 44 44 42 43 40 34 31 32 35 40 40 40 44 42 41 45 48 54 59 55 52 53 54 54 56 59 61 64 63 64 65 64
22 19 18 19 19 19 21 24 26 23 19 18 17 16 17 17 17 19 22 25 26 22 23 29 29 36 50 52 46 45 43 39 43 52 55 55 52 49 50 51 50 50 50 52 52 53 54 54 58 59 62 68 69 69 68 63 61 59 54 50 49 48 47 45 43 45 45 42 43 44 40 34 35 39 37 35 40 44 43 44 47 46 50 56 55 52 53 55 55 56 56 58 62 61 62 62 60
22 20 16 18 21 20 23 28 26 21 19 17 17 21 21 20 19 19 22 23 25 24 24 30 28 31 46 54 50 46 42 38 44 58 64 60 52 45 47 50 52 53 54 57 57 56 57 59 62 59 61 66 63 60 59 56 56 53 49 46 45 44 44 44 46 48 47 44 41 42 42 39 41 44 40 37 42 43 43 48 51 52 54 57 57 53 53 56 56 55 53 57 64 63 60 61 61
19 20 18 18 22 22 22 28 28 22 20 17 20 25 22 20 20 19 21 21 23 26 28 33 33 33 44 57 59 51 44 40 45 60 65 60 52 48 49 50 54 58 58 58 57 54 53 57 64 63 59 58 56 56 56 52 50 46 41 39 40 42 44 47 49 49 48 46 44 40 39 41 44 48 45 43 43 42 44 49 52 54 54 55 59 61 58 56 53 54 53 57 65 65 59 59 61
19 18 18 18 24 27 24 26 29 27 24 19 18 21 20 20 20 20 22 19 20 26 30 32 33 35 44 56 58 50 44 45 49 57 59 56 53 51 52 52 55 60 61 60 59 56 55 58 66 65 57 53 55 56 55 50 48 46 44 46 49 50 51 52 51 50 48 46 46 43 38 37 39 41 41 43 44 42 41 41 42 44 46 49 58 63 60 56 52 52 53 54 59 59 54 55 55
20 18 17 19 25 30 29 27 26 26 27 25 19 17 20 26 26 23 21 20 20 24 25 27 31 34 41 51 55 48 43 49 58 61 58 57 56 53 53 56 58 58 60 62 60 58 58 59 62 60 53 55 61 61 56 52 51 51 52 52 53 53 53 53 52 52 49 45 45 45 40 35 35 35 35 38 39 36 34 34 34 36 40 43 48 50 50 50 49 50 52 52 52 49 45 47 47
21 20 16 18 22 25 27 28 26 24 29 32 26 19 22 30 32 28 23 19 20 21 21 25 29 33 38 45 52 46 42 52 65 65 58 56 57 55 53 53 52 50 54 63 63 60 58 56 59 61 60 61 65 64 59 52 51 54 54 52 53 54 53 52 52 51 49 46 46 47 43 37 36 36 36 38 38 33 29 29 29 31 33 33 36 41 41 41 42 42 45 45 44 43 41 42 46
21 26 20 17 19 19 21 24 23 22 28 35 32 22 24 33 34 31 25 19 18 20 22 23 26 33 37 45 55 56 53 58 64 65 60 57 56 56 53 49 50 52 54 59 61 59 57 56 58 62 64 64 61 61 58 53 52 54 55 54 54 53 50 50 52 51 49 49 49 50 48 43 39 37 37 38 37 35 31 29 29 33 32 28 29 35 37 39 40 37 38 40 40 41 40 40 44
23 31 23 16 16 16 19 21 20 23 28 34 34 25 25 34 36 34 27 21 21 24 26 25 27 35 37 44 56 62 66 64 63 65 62 60 58 55 53 50 53 57 57 59 60 61 62 64 64 62 62 64 62 60 58 55 54 55 56 55 52 50 49 50 51 52 51 51 52 52 49 44 41 38 38 38 35 33 31 29 33 38 34 29 30 33 37 39 38 34 35 37 37 39 41 39 39
23 28 21 17 17 17 20 20 21 29 30 31 34 30 26 32 38 36 29 27 28 30 32 31 32 39 41 42 48 58 64 59 59 64 63 63 61 54 51 52 52 54 57 60 59 58 60 63 63 61 61 63 64 64 62 58 57 59 61 59 56 52 50 52 52 53 54 54 54 54 50 48 45 41 39 38 33 28 26 27 35 39 32 31 36 38 39 39 34 30 31 34 35 36 38 38 37
21 23 20 21 21 20 21 20 23 31 33 30 33 35 30 33 43 43 36 34 36 36 39 37 38 42 43 42 43 50 53 50 56 65 65 65 65 56 50 49 50 54 54 54 53 53 56 59 59 59 62 65 65 66 66 61 59 62 63 62 61 56 52 56 55 54 56 56 55 54 50 50 48 44 41 39 36 31 28 29 34 35 30 32 40 40 39 40 36 30 30 33 36 35 35 38 38
22 21 24 27 27 27 27 25 24 27 32 32 35 39 33 36 50 51 42 39 39 40 41 40 40 39 40 42 39 41 49 57 64 66 63 65 65 59 51 49 54 58 55 54 55 56 58 60 59 59 65 69 70 68 67 63 59 62 64 64 64 59 54 58 58 57 57 55 55 54 51 50 47 45 43 43 42 37 34 33 33 33 29 30 37 38 38 40 38 34 34 34 36 36 36 39 39
22 20 24 31 34 35 32 29 27 27 33 34 36 40 35 36 48 49 46 46 43 38 37 37 38 36 37 39 39 46 57 63 64 63 62 65 65 59 54 52 56 57 58 60 58 56 59 60 58 61 66 67 67 67 66 63 59 59 61 62 64 60 57 59 59 60 60 57 56 57 55 54 49 45 43 43 46 44 40 37 34 33 30 28 32 35 37 38 38 38 38 36 37 39 38 38 39
19 20 25 33 37 38 34 31 32 32 36 37 38 39 35 37 45 46 48 51 43 37 36 34 36 35 34 37 43 51 52 51 52 54 57 61 63 60 56 54 56 57 59 60 56 55 60 61 58 60 61 61 60 61 63 63 61 57 57 57 58 57 57 57 57 60 63 63 62 61 62 60 53 48 46 44 48 48 41 35 33 32 31 30 30 32 34 35 36 38 38 36 36 35 34 34 33
20 17 25 35 36 36 36 36 37 36 39 42 39 37 36 41 47 46 45 46 40 37 37 34 35 36 34 37 44 45 44 47 47 46 52 58 59 59 57 55 55 56 57 58 57 57 58 59 60 60 59 60 61 61 60 61 59 57 57 56 56 56 55 56 57 57 59 61 64 65 66 66 58 51 50 48 48 46 38 33 32 31 32 32 30 29 31 34 35 35 34 31 28 26 24 24 22
30 20 25 35 36 35 37 38 38 34 38 43 38 35 38 42 47 47 44 44 42 41 42 38 37 38 36 37 40 41 46 50 47 47 55 59 58 60 59 54 52 54 56 54 53 56 57 58 60 60 57 57 58 57 56 56 55 55 56 56 58 59 55 52 52 51 50 56 64 67 67 65 57 50 48 47 48 47 42 36 32 29 29 30 29 28 28 30 31 29 25 22 19 17 16 16 14
39 33 30 34 35 35 39 41 40 34 33 37 38 37 39 42 46 47 44 45 46 47 48 44 39 40 40 40 41 43 48 49 50 55 60 61 60 61 61 57 52 53 53 49 47 51 55 54 56 56 52 49 49 48 47 51 55 55 54 55 57 58 54 49 46 44 44 51 60 64 63 57 49 45 43 43 44 44 40 36 32 28 28 28 28 28 26 26 25 22 18 16 13 13 13 13 14
35 40 37 36 37 37 37 38 38 36 32 32 35 36 39 43 44 45 46 47 47 50 54 50 44 42 42 43 43 46 52 52 52 58 60 62 63 62 62 60 55 53 53 50 47 49 53 54 54 51 47 45 45 43 42 48 53 54 51 52 55 55 54 51 45 41 43 46 49 50 48 44 40 40 42 43 44 43 40 35 32 30 31 30 30 28 26 25 22 19 18 17 16 17 19 20 22
26 33 38 38 39 40 38 34 32 33 35 35 34 35 42 47 46 48 50 48 47 50 52 51 49 47 46 48 48 51 55 55 54 56 56 58 60 61 62 60 57 58 57 53 51 51 54 55 52 47 44 44 43 40 42 47 50 50 48 49 51 51 52 50 42 40 43 44 44 42 39 38 37 37 41 45 45 41 39 40 38 37 38 35 32 29 27 25 22 22 23 22 22 24 25 27 28
25 27 32 37 39 39 38 38 36 33 37 39 36 40 51 53 48 49 50 46 45 49 51 50 50 52 52 54 54 53 54 55 57 57 54 53 56 57 57 58 59 60 57 54 56 58 58 54 50 48 45 44 44 43 44 46 47 48 47 47 48 49 50 48 42 42 44 45 45 42 39 41 40 39 40 43 43 37 35 40 44 43 43 40 35 32 30 29 28 28 28 27 28 30 30 31 32
34 32 30 32 37 39 39 41 41 37 38 40 38 44 58 57 48 47 45 42 46 52 53 50 49 51 51 52 53 52 52 53 55 57 55 53 54 54 55 57 58 58 57 58 60 63 63 58 53 52 50 49 51 50 48 49 49 50 50 49 50 49 47 45 43 44 45 46 45 43 43 44 44 47 48 44 43 40 36 39 44 45 44 42 39 37 36 37 35 32 30 31 33 33 32 33 34